Grand Forks AFB, ND

6:44 AM CDT on April 23, 2017 (GMT -0500)
Grand Forks Air Force Base

Weather History for KRDR - March, 2014

Change the Weather History Date:

Monday, March 24, 2014

  Actual Average Record
Temperature  
Mean Temperature 16 °F -  
Max Temperature 27 °F 37 °F 54 °F (2007)
Min Temperature 4 °F 20 °F 3 °F (2002)
Degree Days  
Heating Degree Days 50    
Moisture  
Dew Point 10 °F    
Average Humidity 79    
Maximum Humidity 93    
Minimum Humidity 54    
Precipitation  
Precipitation 0.00 in - - ()
Sea Level Pressure  
Sea Level Pressure 30.26 in    
Wind  
Wind Speed 10 mph (North)    
Max Wind Speed 23 mph    
Max Gust Speed 31 mph    
Visibility 8 miles    
Events Snow    
Averages and records for this station are not official NWS values.
T = Trace of Precipitation, MM = Missing Value Source: NWS Daily Summary

Daily Weather History Graph

Daily Weather History Graph

Search for Another Location

Airport or City:

Trip Planner

Search our weather history database for the weather conditions in past years. The results will help you decide how hot, cold, wet, or windy it might be!

Date:

Astronomy

Mar. 24, 2014 Rise Set
Actual Time 7:24 AM CDT 7:48 PM CDT
Civil Twilight 6:53 AM CDT 8:19 PM CDT
Nautical Twilight 6:16 AM CDT 8:56 PM CDT
Astronomical Twilight 5:38 AM CDT 9:34 PM CDT
Moon 3:20 AM CDT (3/24) 12:50 PM CDT (3/24)
Length of Visible Light 13h 26m
Length of Day
12h 24m
Last Quarter, 43% of the Moon is Illuminated
Mar 24
Last Quarter
Mar 30
New
Apr 7
First Quarter
Apr 15
Full
Apr 22
Last Quarter

Hourly Weather History & Observations

Time (CDT) Temp. Windchill Dew Point Humidity Pressure Visibility Wind Dir Wind Speed Gust Speed Precip Events Conditions
12:58 AM 4.3 °F -6.5 °F 0.9 °F 86% 30.39 in 10.0 mi West 5.8 mph - N/A   Clear
1:58 AM 5.4 °F -3.6 °F 1.6 °F 84% 30.38 in 10.0 mi WSW 4.6 mph - N/A   Clear
2:58 AM 5.5 °F -1.5 °F 1.8 °F 84% 30.37 in 10.0 mi WSW 3.5 mph - N/A   Scattered Clouds
3:58 AM 4.8 °F -4.3 °F 0.9 °F 84% 30.36 in 10.0 mi West 4.6 mph - N/A   Clear
4:58 AM 5.4 °F -6.5 °F 0.5 °F 80% 30.36 in 10.0 mi NNW 6.9 mph - 0.00 in   Mostly Cloudy
5:09 AM 5.0 °F -5.6 °F 1.4 °F 85% 30.27 in 10.0 mi NW 5.8 mph - N/A Snow Light Snow
5:25 AM 5.0 °F -5.6 °F -0.4 °F 78% 30.26 in 10.0 mi WNW 5.8 mph - N/A   Partly Cloudy
5:58 AM 4.1 °F -6.7 °F -0.6 °F 81% 30.34 in 10.0 mi West 5.8 mph - 0.00 in   Clear
6:58 AM 5.7 °F -7.2 °F 0.9 °F 80% 30.34 in 10.0 mi WNW 8.1 mph - 0.00 in Snow Light Snow
7:01 AM 6.8 °F -5.9 °F 1.4 °F 79% 30.25 in 10.0 mi WNW 8.1 mph - N/A   Clear
7:58 AM 7.7 °F -5.8 °F 1.6 °F 76% 30.34 in 10.0 mi WNW 9.2 mph - 0.00 in   Clear
8:58 AM 12.4 °F -1.6 °F 2.7 °F 65% 30.32 in 10.0 mi West 11.5 mph - N/A   Clear
9:58 AM 15.6 °F 1.2 °F 6.1 °F 66% 30.31 in 10.0 mi WNW 13.8 mph - N/A   Clear
10:58 AM 19.6 °F 7.4 °F 10.6 °F 68% 30.30 in 10.0 mi WNW 11.5 mph - N/A   Clear
11:58 AM 23.4 °F 10.1 °F 13.3 °F 65% 30.27 in 10.0 mi WNW 16.1 mph - N/A   Clear
12:58 PM 27.0 °F 14.7 °F 14.4 °F 59% 30.27 in 10.0 mi NNW 16.1 mph 24.2 mph N/A   Partly Cloudy
1:58 PM 26.2 °F 13.0 °F 12.6 °F 56% 30.26 in 10.0 mi NNW 18.4 mph 26.5 mph N/A   Mostly Cloudy
2:58 PM 26.2 °F 11.5 °F 11.8 °F 55% 30.25 in 10.0 mi NNW 23.0 mph 26.5 mph N/A   Mostly Cloudy
3:58 PM 25.0 °F 11.7 °F 10.2 °F 54% 30.25 in 10.0 mi North 17.3 mph 31.1 mph N/A   Mostly Cloudy
4:45 PM 23.0 °F 8.0 °F 12.2 °F 63% 30.19 in 10.0 mi North 20.7 mph 26.5 mph N/A   Scattered Clouds
4:46 PM 23.0 °F 8.0 °F 12.2 °F 63% 30.18 in 10.0 mi North 20.7 mph 26.5 mph N/A   Partly Cloudy
4:58 PM 22.8 °F 7.7 °F 12.9 °F 66% 30.27 in 10.0 mi North 20.7 mph 24.2 mph 0.00 in   Mostly Cloudy
5:20 PM 21.2 °F 8.3 °F 15.8 °F 80% 30.19 in 10.0 mi NNE 13.8 mph - N/A   Overcast
5:29 PM 21.2 °F 8.3 °F 15.8 °F 80% 30.19 in 10.0 mi NE 13.8 mph - N/A Snow Light Snow
5:33 PM 19.4 °F 6.0 °F 15.8 °F 86% 30.19 in 6.0 mi NE 13.8 mph - N/A Snow Light Snow
5:38 PM 19.4 °F 6.0 °F 15.8 °F 86% 30.20 in 4.0 mi NE 13.8 mph - N/A Snow Light Snow
5:48 PM 19.4 °F 5.5 °F 15.8 °F 86% 30.20 in 5.0 mi NNE 15.0 mph - N/A   Overcast
5:53 PM 19.4 °F 5.5 °F 15.8 °F 86% 30.20 in 6.0 mi NNE 15.0 mph - N/A Snow Light Snow
5:58 PM 18.9 °F 5.9 °F 15.1 °F 85% 30.28 in 2.5 mi NNE 12.7 mph - 0.00 in Snow Light Snow
6:03 PM 17.6 °F 4.3 °F 15.8 °F 93% 30.20 in 1.0 mi NNE 12.7 mph - N/A Snow Light Snow
6:08 PM 17.6 °F 5.7 °F 15.8 °F 93% 30.20 in 1.0 mi NNE 10.4 mph - N/A Snow Light Snow
6:13 PM 17.6 °F 5.7 °F 15.8 °F 93% 30.21 in 2.0 mi NNE 10.4 mph - N/A Snow Light Snow
6:23 PM 17.6 °F 4.3 °F 15.8 °F 93% 30.21 in 1.8 mi NE 12.7 mph - N/A Snow Light Snow
6:24 PM 17.6 °F 3.2 °F 15.8 °F 93% 30.21 in 1.8 mi NE 15.0 mph - N/A Snow Light Snow
6:29 PM 17.6 °F 5.0 °F 14.0 °F 86% 30.21 in 3.0 mi NNE 11.5 mph - N/A Snow Light Snow
6:39 PM 17.6 °F 5.7 °F 14.0 °F 86% 30.21 in 7.0 mi NE 10.4 mph - N/A   Overcast
6:58 PM 17.2 °F 5.2 °F 13.6 °F 86% 30.29 in 8.0 mi NNE 10.4 mph - 0.00 in Snow Light Snow
7:02 PM 17.6 °F 4.3 °F 14.0 °F 86% 30.21 in 10.0 mi NNE 12.7 mph - N/A   Mostly Cloudy
7:12 PM 15.8 °F 4.2 °F 12.2 °F 86% 30.21 in 10.0 mi NNE 9.2 mph - N/A   Mostly Cloudy
7:21 PM 15.8 °F 4.2 °F 12.2 °F 86% 30.21 in 9.0 mi NNE 9.2 mph - N/A Snow Light Snow
7:26 PM 17.6 °F 5.7 °F 14.0 °F 86% 30.21 in 7.0 mi NNE 10.4 mph - N/A   Mostly Cloudy
7:31 PM 15.8 °F 3.4 °F 12.2 °F 86% 30.21 in 5.0 mi NNE 10.4 mph - N/A Snow Light Snow
7:36 PM 15.8 °F 2.7 °F 14.0 °F 93% 30.21 in 4.0 mi NNE 11.5 mph - N/A Snow Light Snow
7:38 PM 15.8 °F 2.7 °F 12.2 °F 86% 30.21 in 5.0 mi NNE 11.5 mph - N/A Snow Light Snow
7:43 PM 15.8 °F 3.4 °F 12.2 °F 86% 30.22 in 10.0 mi NNE 10.4 mph - N/A Snow Light Snow
7:44 PM 15.8 °F 3.4 °F 12.2 °F 86% 30.22 in 10.0 mi NNE 10.4 mph - N/A   Mostly Cloudy
7:54 PM 15.8 °F 2.1 °F 12.2 °F 86% 30.22 in 10.0 mi North 12.7 mph - N/A   Overcast
7:56 PM 15.8 °F 2.7 °F 12.2 °F 86% 30.21 in 8.0 mi NNE 11.5 mph - N/A   Overcast
7:58 PM 15.8 °F 2.7 °F 12.2 °F 86% 30.30 in 7.0 mi North 11.5 mph - 0.00 in   Overcast
8:58 PM 15.8 °F 0.9 °F 6.3 °F 66% 30.32 in 10.0 mi NNW 15.0 mph - N/A   Overcast
9:03 PM 15.8 °F -0.6 °F 5.0 °F 62% 30.24 in 10.0 mi North 18.4 mph - N/A   Overcast
9:28 PM 14.0 °F -3.0 °F 5.0 °F 67% 30.25 in 10.0 mi NNW 18.4 mph 27.6 mph N/A   Overcast
9:58 PM 13.5 °F -1.5 °F 4.6 °F 68% 30.33 in 10.0 mi North 13.8 mph - N/A   Overcast
10:58 PM 11.7 °F -4.4 °F 2.1 °F 66% 30.35 in 10.0 mi NNW 15.0 mph - N/A   Clear
11:58 PM 11.5 °F -4.7 °F 1.9 °F 66% 30.35 in 10.0 mi NNW 15.0 mph - N/A   Clear